Tracking 22124 objects as of 23-Jan-2021
HD Live streaming from Space Station
objects crossing your sky now

LEMUR-2-DAYWZAGOODDAY

Track LEMUR-2-DAYWZAGOODDAY now!
10-day predictions
LEMUR-2-DAYWZAGOODDAY is classified as:


NORAD ID: 46501
Int'l Code: 2020-068R
Perigee: 557.6 km
Apogee: 575.5 km
Inclination: 97.7 °
Period: 95.8 minutes
Semi major axis: 6937 km
RCS: Unknown
Launch date: September 28, 2020
Source: United States (US)
Launch site: PLESETSK MISSILE AND SPACE COMPLEX (PKMTR)
aabbcc
Your satellite tracking list
Your tracking list is empty




NASA's NSSDC Master Catalog

Two Line Element Set (TLE):
1 46501U 20068R   21022.77657135  .00001576  00000-0  12329-3 0  9999
2 46501  97.6774 321.0576 0012874 224.3212 135.6987 15.02437480 17371
Source of the keplerian elements: AFSPC